Regional Weather Roundup
Issued by NWS

Home | Current Version | Previous Version | Text Only | Print | Product List | Glossary Off
Versions: 1 2 3 4 5 6 7 8 9 10 11 12 13 14 15 16 17 18 19 20 21 22 23 24 25 26 27 28 29 30 31 32 33 34 35 36 37 38 39 40 41 42 43 44 45 46 47 48 49 50

000
ASUS43 KFSD 290910
RWRSD

WEATHER ROUNDUP FOR SOUTH DAKOTA
NATIONAL WEATHER SERVICE SIOUX FALLS SD
400 AM CDT FRI JUL 29 2016

NOTE: "FAIR" INDICATES FEW OR NO CLOUDS BELOW 12,000 FEET WITH NO
SIGNIFICANT WEATHER AND/OR OBSTRUCTIONS TO VISIBILITY.


SDZ001>005-009-010-012>017-291000-
NORTHWEST AND NORTH CENTRAL SOUTH DAKOTA

CITY           SKY/WX    TMP DP  RH WIND       PRES   REMARKS
BUFFALO          N/A     60  60 100 SE10      30.08F
FAITH            N/A     60  58  92 CALM      30.13F
MOBRIDGE       CLOUDY    69  59  70 CALM      30.07S
$$

SDZ012>016-024>037-041>051-057-063-072>074-291000-
SOUTHWEST AND SOUTH CENTRAL SOUTH DAKOTA

CITY           SKY/WX    TMP DP  RH WIND       PRES   REMARKS
RAPID CTY ARPT FOG       57  56  96 E6        30.14F VSB 1/2
PIERRE         PTCLDY    63  62  97 W7        30.08F
CUSTER         FOG       51  49  92 CALM      30.23F VSB 1
ELLSWORTH AFB  PTCLDY    58  58 100 SE5       30.13F
PHILIP         FOG       57  57 100 CALM      30.11F VSB 1/4
PINE RIDGE     CLEAR     55  55 100 CALM      30.15F
WINNER         CLOUDY    64  62  93 CALM      30.10F
$$

SDZ004>011-016>023-039-040-291000-
NORTHEAST SOUTH DAKOTA

CITY           SKY/WX    TMP DP  RH WIND       PRES   REMARKS
ABERDEEN       CLOUDY    64  61  90 CALM      30.09S
WATERTOWN      MOCLDY    63  59  87 N3        30.09F
BROOKINGS      CLEAR     55  53  93 NW7       30.08F
SISSETON         N/A     60  59  96 NW6       30.07F
$$

SDZ017-020-022-023-036>040-048>070-291000-
SOUTHEAST SOUTH DAKOTA

CITY           SKY/WX    TMP DP  RH WIND       PRES   REMARKS
SIOUX FALLS    PTCLDY    57  54  89 N5        30.07F
HURON          CLEAR     60  56  86 CALM      30.07F
CHAMBERLAIN    CLOUDY    67  67  99 CALM      30.10S
MITCHELL       CLOUDY    62  57  83 CALM      30.08F
YANKTON        PTCLDY    63  54  72 NE5       30.05S
$$

ABBREVIATIONS USED IN REMARKS
   TC - TEMPERATURE IN CELSIUS
  WCI - WIND CHILL INDEX
   HX - HEAT INDEX
  VSB - VISIBILITY





USA.gov is the U.S. government's official web portal to all federal, state and local government web resources and services.